Theta_e
302 302 302 302 301 300 300 301 301 301 302 303 304 305 306 306 306 307 318 324 320 314 316 316 314 312 312 311 308 316 313 314 311 307 303 303 303 305 307 310 310 306 305 303 304 299 295 315 312 307 317 323 319 319
303 302 302 302 301 300 300 301 301 301 302 302 303 304 305 305 305 305 313 318 317 315 315 321 320 322 320 319 316 317 314 315 316 308 306 306 303 307 309 301 314 303 310 305 306 306 317 318 318 315 321 322 319 319
303 303 302 302 302 301 300 301 301 302 302 302 303 303 304 304 305 305 310 313 311 307 307 308 308 315 320 320 322 313 314 319 320 325 315 312 308 309 303 304 307 311 315 308 309 313 314 319 321 321 320 319 316 321
302 303 303 303 303 302 302 302 302 302 301 301 303 304 304 304 304 304 310 314 311 311 303 307 317 314 317 319 318 320 318 322 322 316 310 308 304 313 306 308 307 309 312 310 310 313 315 317 319 320 319 319 316 317
303 303 303 304 303 303 302 302 303 302 301 301 302 304 305 304 304 306 311 314 315 310 305 307 313 313 315 314 313 316 317 316 312 309 306 303 307 308 308 308 305 311 312 306 305 316 316 317 320 321 319 318 319 319
303 303 304 304 304 303 303 302 303 302 301 301 302 303 304 304 305 306 304 310 314 312 304 299 310 308 310 310 310 312 314 313 312 308 307 309 316 310 303 301 310 311 314 318 310 317 318 318 319 318 316 317 317 318
303 304 303 303 303 304 303 303 303 302 302 302 302 302 303 304 303 303 302 307 307 313 303 298 300 308 311 311 309 308 314 311 311 308 306 306 307 308 304 300 309 310 311 313 316 316 312 313 312 315 317 318 319 321
302 302 303 303 303 303 303 302 302 302 302 302 302 302 303 304 302 301 308 305 308 309 306 299 301 304 311 306 305 310 306 307 307 305 307 305 307 307 301 308 310 311 311 311 311 314 314 315 315 315 317 318 317 317
302 302 302 303 303 303 303 303 303 303 302 302 302 303 304 302 301 306 307 307 313 309 302 299 297 296 310 305 308 309 309 302 308 302 302 304 301 299 304 307 307 309 310 311 313 312 312 311 312 314 314 315 315 317
300 301 302 303 303 304 304 304 303 302 301 302 302 300 296 303 304 306 303 301 301 302 302 300 303 299 306 304 305 307 307 303 299 304 308 303 300 310 309 309 310 311 312 312 309 309 311 311 311 312 313 315 317 317
300 300 300 302 303 303 304 303 304 302 300 300 298 299 305 306 304 302 295 294 297 294 298 297 299 299 306 300 300 305 301 303 296 300 301 300 300 309 313 310 312 314 313 312 313 313 313 312 311 311 314 315 317 319
301 301 302 302 303 303 302 302 304 301 301 300 302 305 304 300 297 292 293 295 293 291 297 295 297 301 304 305 300 301 297 298 292 304 301 296 303 312 312 312 312 312 311 311 312 311 311 311 311 313 313 316 317 320
300 300 300 301 302 302 302 302 303 302 302 303 300 296 296 295 288 287 285 290 290 295 298 298 295 299 303 302 298 297 292 292 300 296 296 300 310 311 311 311 310 311 310 310 310 310 310 310 311 313 315 317 319 320
300 300 300 301 301 302 302 303 303 302 301 294 290 286 288 287 289 291 291 293 298 299 299 299 298 296 299 296 297 292 296 297 291 292 293 301 310 310 310 309 309 308 308 308 308 309 310 310 311 314 317 318 318 319
300 300 300 300 301 301 302 303 302 302 297 291 292 284 287 292 294 295 298 299 301 302 300 298 299 299 297 296 297 296 292 290 292 292 298 305 313 310 309 309 308 307 306 306 307 309 309 310 311 314 317 318 319 319
300 299 300 301 301 302 302 301 301 302 297 293 292 289 293 291 290 293 295 295 301 300 301 299 295 293 294 295 293 291 290 290 295 302 308 310 310 310 309 307 306 305 305 305 307 308 309 309 311 313 314 318 317 318
299 298 300 302 301 300 301 300 299 293 292 290 290 293 293 293 292 294 295 296 301 297 293 296 290 290 296 292 291 295 293 297 301 306 307 310 310 308 307 306 306 305 305 305 305 306 308 310 312 313 311 315 316 318
297 299 301 301 301 299 300 299 296 292 286 291 289 291 294 294 293 295 298 300 298 296 295 291 296 291 290 289 291 296 300 302 303 307 308 309 308 308 308 307 306 306 306 306 306 307 307 309 310 310 312 314 312 311
299 301 300 299 298 296 293 295 297 288 290 293 293 294 295 295 296 297 297 298 299 299 296 294 290 290 291 295 296 297 299 301 301 304 307 309 309 309 308 308 307 306 306 306 307 306 306 310 310 311 311 313 310 306
300 300 300 300 300 296 292 294 299 292 290 292 294 293 294 293 295 296 296 296 295 294 291 290 290 293 294 296 298 299 299 301 300 299 301 305 306 308 308 306 303 305 303 305 305 299 305 307 311 311 311 310 305 302
299 300 300 300 299 298 296 294 292 293 293 291 294 293 292 295 293 293 293 296 293 291 290 293 294 296 300 299 299 299 299 300 297 298 298 298 303 304 304 303 303 301 300 301 301 302 302 310 311 311 310 306 305 304
298 298 299 299 295 294 294 296 293 295 292 292 292 293 291 290 291 293 296 293 292 293 295 295 296 297 296 299 300 302 301 302 302 300 296 297 298 299 299 300 300 299 300 301 301 301 308 311 310 310 306 304 304 304
299 299 298 295 289 289 288 296 288 290 287 290 292 290 290 291 293 297 291 293 295 300 300 300 300 302 300 300 301 301 301 302 299 300 301 300 300 300 300 300 300 300 299 301 304 307 310 300 304 306 305 306 305 304
298 295 290 289 289 287 292 287 289 289 290 288 288 286 289 291 295 292 290 293 296 299 299 302 300 299 300 302 299 299 300 303 302 301 302 301 300 301 301 301 301 302 304 304 303 312 310 308 301 306 305 306 306 305
288 288 288 284 290 286 285 286 287 287 285 289 288 288 290 293 289 288 289 294 296 299 301 303 303 301 300 300 301 302 305 302 300 299 302 303 301 302 300 301 301 304 306 304 307 310 309 308 306 306 307 307 305 304
282 288 285 288 288 287 288 286 286 287 289 288 288 291 293 291 287 286 291 297 298 297 297 296 295 296 297 299 298 300 302 303 303 302 302 303 302 299 299 298 298 302 306 306 310 309 307 306 306 305 306 305 295 301
283 287 291 295 292 292 289 291 291 289 287 287 289 290 289 285 286 291 298 300 297 296 296 296 295 295 295 295 297 300 301 302 304 303 306 305 305 304 302 300 300 302 308 314 314 311 307 304 305 306 306 306 307 308
289 290 287 291 291 293 289 289 288 287 289 294 293 286 285 286 288 295 296 297 296 296 294 294 295 296 295 296 297 297 298 301 304 305 305 303 305 305 306 304 307 300 316 315 312 309 307 306 308 307 307 307 308 310
289 293 292 289 290 290 291 290 289 292 295 295 290 288 288 292 295 294 297 297 296 293 291 291 293 296 296 296 297 298 299 301 302 300 298 300 301 302 305 306 312 313 317 312 292 302 309 308 310 309 309 309 311 310
291 295 290 289 288 288 292 294 294 297 297 298 294 292 293 295 298 301 296 294 291 291 292 295 299 303 303 303 303 304 306 307 306 303 301 298 300 304 305 307 315 314 315 312 310 305 291 302 303 307 306 309 310 309
294 294 291 291 290 294 297 300 302 301 299 297 296 293 291 292 294 296 295 294 292 293 294 295 297 300 303 305 304 304 304 307 308 310 311 309 311 312 315 316 315 314 312 310 308 307 306 306 309 309 309 309 308 305
292 290 290 289 292 297 299 299 299 297 297 294 293 294 292 290 286 291 295 293 291 291 291 294 295 296 304 306 304 305 293 308 308 309 310 312 313 314 315 314 312 311 309 308 308 309 308 308 308 308 309 308 307 307
293 293 292 291 292 294 298 297 295 294 294 292 292 291 290 287 285 287 293 294 292 293 294 296 300 305 304 304 305 304 298 304 296 287 286 287 292 301 312 312 310 310 309 308 309 310 309 309 308 308 308 307 306 305
Wind_Speed
13 12 12 11 9 8 6 5 3 3 5 7 10 13 14 16 17 9 5 2 5 6 3 6 5 7 8 5 8 5 2 5 5 10 11 12 12 14 14 13 7 10 8 6 5 4 9 5 7 14 6 5 6 9
13 11 11 11 10 9 7 5 4 3 4 6 9 12 14 16 17 14 5 3 4 6 6 5 8 7 7 8 6 4 4 3 7 5 9 9 12 11 12 10 7 1 7 8 9 8 9 7 9 11 15 7 8 6
12 13 11 10 10 9 8 6 5 3 3 5 8 10 13 16 17 13 7 5 4 5 7 9 6 9 4 5 4 5 2 8 2 4 5 5 7 6 8 10 11 9 8 3 4 7 5 10 6 13 13 8 8 13
11 11 12 12 10 9 9 7 7 4 3 4 7 10 11 14 17 14 6 5 5 6 5 5 7 6 5 3 5 6 6 6 6 5 6 6 9 8 9 11 11 11 13 10 9 6 6 6 9 11 7 4 1 6
11 10 11 13 12 10 8 7 6 4 3 4 5 8 11 13 15 10 8 2 3 6 6 2 4 8 7 5 7 6 5 4 6 6 6 8 8 9 9 11 10 10 9 8 10 11 7 11 7 8 8 11 12 12
9 10 12 12 12 11 9 6 7 4 3 3 5 8 11 13 13 7 5 4 3 4 5 4 6 6 6 7 7 7 6 6 7 7 6 8 11 6 6 10 11 10 8 9 8 11 10 10 13 13 13 12 13 14
10 10 9 8 9 10 10 9 7 5 4 4 5 8 10 11 7 5 6 5 9 7 4 4 4 8 8 7 7 6 7 6 6 7 10 10 10 7 10 13 13 13 12 12 13 13 13 14 13 15 13 13 12 12
8 8 8 9 10 9 9 8 7 5 4 4 5 8 11 12 12 6 4 6 5 5 4 5 2 5 8 6 7 7 7 7 5 6 5 7 8 9 9 10 10 10 12 9 8 9 12 12 13 13 13 13 14 14
9 8 10 8 9 9 9 8 6 5 4 5 7 10 5 4 4 5 1 2 4 5 5 5 7 6 8 8 7 7 4 7 6 8 10 7 9 7 6 10 14 10 9 7 11 13 14 13 12 11 13 15 15 14
2 8 5 10 11 11 9 8 7 4 3 4 4 4 4 5 1 2 3 4 5 5 5 5 8 5 7 7 6 2 5 6 6 8 7 11 11 11 12 12 10 6 5 7 9 10 12 13 13 15 14 13 13 14
9 9 6 7 10 10 9 7 8 6 3 3 3 2 4 1 3 4 4 4 5 4 5 7 11 6 3 4 6 6 3 2 8 10 10 7 9 10 17 15 4 6 1 4 7 8 10 12 12 13 15 14 12 14
13 10 12 10 10 10 8 5 8 4 1 3 3 3 2 2 3 3 4 4 6 6 5 8 9 5 4 4 3 2 2 4 6 3 4 8 5 9 7 7 5 4 3 4 6 9 11 13 14 13 14 15 10 13
13 12 8 7 9 8 8 6 9 5 9 2 2 4 3 2 2 5 7 6 5 3 3 5 3 1 4 1 2 3 6 6 5 6 10 7 9 7 7 4 3 1 2 5 8 11 13 14 15 15 14 15 13 13
12 9 8 8 8 7 7 8 9 5 4 0 3 0 3 4 6 6 8 5 4 7 8 7 6 3 4 6 4 5 5 4 8 6 11 7 12 11 8 4 1 3 5 7 9 11 13 15 15 17 17 14 12 12
9 8 8 7 7 8 6 10 7 5 2 4 4 5 8 8 7 3 6 0 1 4 4 6 6 5 6 5 5 5 5 7 5 10 8 6 11 11 7 5 1 3 5 7 9 10 11 15 16 16 16 16 14 12
10 6 3 9 8 9 11 7 6 4 2 3 5 5 7 8 9 5 3 5 2 4 1 4 2 4 6 5 9 10 8 4 2 8 8 10 11 8 6 4 3 4 6 7 8 11 11 13 13 13 15 16 12 12
8 2 8 9 15 8 1 3 3 5 5 4 5 8 5 4 4 5 6 4 4 5 6 2 2 5 5 8 17 5 10 1 6 5 4 8 7 7 5 3 1 4 5 8 9 12 10 11 12 13 14 12 9 11
2 11 15 15 10 5 1 2 3 4 3 6 8 7 7 8 7 4 2 3 7 6 3 3 5 6 6 7 7 4 6 5 3 4 6 6 3 4 4 2 4 6 7 8 10 12 10 9 9 8 12 9 6 8
2 11 16 15 6 4 5 5 3 3 7 5 7 6 7 5 6 7 4 4 8 5 2 3 6 7 9 9 6 6 8 6 6 6 3 8 6 6 6 5 5 7 7 10 12 10 9 5 8 4 7 5 1 3
12 17 16 14 7 3 4 3 3 4 4 3 7 7 8 7 7 7 7 8 7 7 9 10 10 9 9 7 7 7 8 8 9 8 4 7 5 6 8 7 5 8 8 12 12 10 8 6 4 6 8 2 4 4
7 5 6 5 3 4 3 2 4 3 5 5 6 5 6 6 8 8 8 9 10 10 11 10 11 12 13 12 11 10 11 10 11 10 10 9 7 8 7 8 9 8 10 12 10 10 10 6 6 6 6 2 4 5
3 2 3 4 3 2 3 3 2 2 3 5 8 7 6 8 8 9 9 10 11 11 11 12 12 12 13 14 13 14 14 14 13 11 12 11 11 11 11 10 11 12 12 11 10 11 5 7 5 3 2 4 5 5
6 1 2 3 1 1 5 2 2 4 5 4 3 5 5 7 9 9 11 11 12 13 13 14 16 18 16 17 16 15 15 14 12 12 10 10 11 11 10 11 11 11 12 11 12 4 6 4 5 5 5 4 5 4
5 4 3 3 4 4 1 3 2 5 5 7 5 6 9 9 9 10 12 11 10 10 9 10 10 12 13 16 14 13 14 13 14 13 12 11 10 10 11 11 11 11 11 11 8 7 5 7 8 4 3 5 5 6
1 3 4 4 5 3 5 6 8 5 7 7 6 10 4 4 5 11 16 11 7 6 12 13 10 8 7 8 10 10 9 8 8 11 11 13 13 10 11 11 11 10 11 9 4 8 8 8 4 4 8 7 6 7
3 5 3 5 7 6 5 5 2 5 8 8 5 4 4 5 5 7 4 6 5 4 8 8 9 11 11 11 11 11 11 10 8 8 10 13 12 12 12 12 10 10 10 10 8 10 12 10 7 4 3 4 7 8
4 6 6 6 5 5 5 6 9 9 9 5 5 4 3 4 5 2 4 6 7 7 6 7 7 9 11 11 12 12 12 12 13 9 13 12 12 11 11 11 12 10 6 9 10 11 14 12 9 8 6 7 10 7
6 5 9 7 6 6 8 9 6 6 4 4 3 2 3 4 4 6 5 6 7 5 7 8 9 9 10 11 12 10 12 13 14 13 9 9 11 11 13 8 9 10 9 10 11 11 9 8 9 9 8 9 7 7
4 5 8 12 9 7 6 3 3 4 3 3 2 3 3 2 3 7 5 7 8 8 9 9 8 7 8 9 10 10 11 12 13 17 17 13 9 12 10 12 9 8 7 9 6 9 15 13 12 12 14 10 8 4
8 5 5 6 9 6 5 3 5 7 4 3 2 3 3 5 5 5 6 7 8 9 10 10 10 8 8 7 8 9 11 11 11 11 12 10 10 10 9 8 8 7 8 9 9 6 6 4 5 3 5 10 7 5
4 4 5 5 6 7 9 9 5 5 1 2 2 5 5 3 4 3 3 5 9 9 9 8 9 9 10 7 6 7 7 9 6 10 9 6 3 5 4 8 7 7 8 9 9 6 6 7 12 13 14 11 11 8
2 4 4 6 7 8 11 5 3 3 3 3 4 5 4 2 3 3 3 8 10 12 12 10 8 9 8 5 4 3 4 6 6 5 7 6 3 5 7 8 8 7 9 11 9 9 15 15 9 8 9 10 10 8
4 6 6 5 5 6 8 4 2 5 5 2 4 4 4 4 4 4 6 5 10 11 12 9 6 4 6 5 6 5 4 4 3 4 5 4 2 5 7 7 7 8 9 7 9 8 9 7 7 9 9 10 9 11
Wind_Direction
204 205 205 203 207 216 230 251 258 313 345 352 348 346 349 349 354 342 319 23 302 290 26 352 355 329 317 289 273 40 218 160 257 247 251 258 260 266 275 282 150 180 212 231 221 215 263 69 37 320 8 354 324 335
203 206 209 206 205 209 220 229 226 278 324 341 349 343 344 345 349 342 270 129 336 265 21 2 338 354 5 16 331 310 341 334 9 256 242 260 268 282 296 289 302 100 303 150 181 237 214 198 195 211 252 330 307 310
205 206 205 208 209 208 208 213 219 254 305 333 338 341 340 340 343 349 310 350 257 273 263 227 228 205 234 268 3 301 103 2 69 349 318 307 293 301 271 280 314 321 135 200 197 239 310 215 261 48 55 47 38 315
210 208 206 208 210 206 203 212 221 230 287 323 331 333 336 336 336 339 298 18 287 304 276 115 134 174 202 263 263 257 298 324 308 293 306 293 291 311 295 301 297 298 322 313 303 260 284 258 67 41 44 9 349 323
196 204 208 204 204 211 214 215 203 199 267 303 320 336 336 333 331 308 278 323 341 309 326 93 181 218 154 215 246 234 233 258 274 265 248 259 270 283 287 293 285 301 324 321 317 334 331 338 344 345 335 327 320 302
202 214 215 197 203 202 205 205 181 199 235 292 310 327 332 329 332 283 211 169 15 298 281 260 107 151 190 218 218 228 217 227 246 259 257 258 272 290 269 260 268 273 315 344 340 338 332 326 323 324 316 317 321 324
184 171 173 188 190 195 195 187 192 208 241 271 298 312 319 323 310 313 1 356 335 308 249 248 224 161 197 190 211 215 210 247 240 246 235 252 264 236 246 257 275 298 304 317 316 321 318 317 314 313 308 302 306 303
179 179 180 174 167 167 176 184 189 202 234 269 294 302 303 304 283 246 156 232 304 264 257 260 199 163 178 210 229 200 210 198 215 241 257 245 238 241 253 259 266 275 276 277 284 328 330 324 320 320 326 322 315 309
186 181 186 184 177 186 184 182 185 190 222 276 295 300 280 227 237 61 149 263 270 298 290 220 244 192 165 225 223 171 228 231 212 223 227 245 238 232 240 241 248 246 268 339 332 321 307 304 307 325 327 322 320 321
147 203 173 186 186 185 181 182 167 172 221 286 267 214 194 51 237 238 176 205 204 214 223 265 272 258 198 199 199 236 180 238 263 218 219 226 239 252 244 247 256 288 352 341 310 307 326 329 319 315 310 314 318 315
176 167 180 184 169 165 164 166 172 173 225 227 226 43 69 338 244 236 204 223 193 228 207 224 254 273 149 273 214 199 290 222 252 240 250 222 238 245 213 224 192 79 13 294 300 300 311 310 311 316 309 313 312 327
162 185 189 180 171 165 173 179 178 208 19 3 337 62 143 240 235 184 239 212 220 224 186 207 213 218 58 7 298 61 239 260 254 289 218 237 236 112 110 109 116 149 240 290 313 316 316 316 318 313 309 303 324 313
183 189 178 188 186 169 183 206 205 303 296 224 245 177 203 204 161 214 198 208 201 212 145 153 107 130 105 258 261 265 208 252 290 249 238 228 117 127 113 134 153 220 312 346 320 323 321 318 320 330 322 314 315 312
163 160 161 151 174 185 194 212 192 245 266 191 97 119 240 197 236 205 249 235 271 226 160 157 144 182 229 176 226 226 241 297 250 229 227 230 169 156 147 155 216 360 357 333 338 331 326 339 333 329 324 316 308 318
150 162 180 189 194 201 197 186 199 220 189 193 198 212 216 238 248 8 330 188 349 342 174 178 161 183 192 219 213 234 222 217 220 243 245 182 113 127 137 119 22 2 355 353 337 329 348 337 331 326 320 314 312 304
122 109 127 145 168 161 162 180 203 216 236 221 224 249 247 221 231 214 237 262 144 298 6 97 254 230 208 235 207 206 223 249 334 358 91 108 121 121 123 125 74 4 10 336 337 336 344 343 323 313 324 316 310 300
168 133 136 133 124 123 83 243 196 197 241 217 225 240 248 280 264 280 278 274 213 207 227 210 258 223 286 234 237 238 237 310 359 91 60 92 122 133 140 136 44 355 347 332 338 324 335 343 340 324 338 334 350 354
344 129 124 120 120 66 345 259 242 191 238 244 257 252 255 261 271 252 204 220 237 220 191 253 326 234 242 234 225 336 336 138 279 196 188 128 163 185 218 265 307 308 318 312 326 308 305 347 342 336 339 341 31 44
144 130 136 130 127 172 199 209 219 235 233 246 241 238 223 240 250 255 231 201 250 258 286 219 207 235 240 270 274 294 307 314 20 12 155 184 224 273 277 274 292 293 338 327 291 287 301 5 342 332 324 303 126 110
132 145 159 172 203 261 197 166 223 246 271 270 238 223 232 237 233 225 227 239 245 228 230 243 258 263 278 290 295 290 285 291 276 263 251 292 226 233 265 279 293 338 302 292 283 284 310 318 358 338 316 346 153 157
133 138 153 221 232 243 289 226 218 265 321 305 303 253 244 237 223 235 241 219 221 239 249 247 249 256 270 278 283 291 299 304 298 303 307 303 318 309 299 310 320 308 297 288 297 306 289 37 356 336 306 198 154 138
100 245 200 197 269 259 255 248 272 299 260 272 287 267 249 250 250 239 226 223 230 234 229 237 242 249 253 247 245 241 246 253 262 274 284 278 272 267 265 267 271 271 273 285 295 295 359 31 2 327 150 130 112 119
150 215 240 220 309 323 265 349 306 287 268 272 276 270 263 263 259 248 247 239 234 228 225 225 229 232 241 254 259 259 265 271 265 256 251 255 259 265 268 270 272 275 274 271 277 330 68 72 81 83 109 133 141 138
167 215 223 212 206 250 139 174 210 280 280 282 273 278 290 289 290 283 274 267 266 266 259 255 249 247 245 238 242 242 237 230 235 243 251 255 248 246 255 260 263 268 271 274 271 104 123 123 129 139 182 203 196 198
261 239 150 229 231 208 237 230 195 212 253 266 291 281 268 292 280 281 276 276 295 12 24 355 336 316 311 290 289 286 274 248 261 287 265 228 234 239 246 253 256 259 263 264 201 136 143 151 141 184 202 209 220 236
256 210 184 242 177 215 222 289 225 236 289 308 276 282 310 303 271 255 316 41 47 16 338 317 299 295 294 294 289 284 279 291 308 290 270 276 261 236 237 240 243 248 242 244 155 162 164 166 162 214 240 262 249 237
255 242 204 237 249 233 278 296 307 300 299 281 282 320 293 248 256 18 5 20 339 323 294 283 277 275 273 276 278 282 287 279 260 238 241 257 279 279 248 241 237 245 233 128 154 171 175 163 170 203 218 245 270 210
249 294 315 309 299 282 284 295 301 299 312 14 10 191 235 248 264 10 340 314 300 308 300 280 268 265 261 262 266 263 268 263 265 259 252 249 242 254 252 249 256 121 137 152 154 149 155 171 185 178 209 237 267 225
267 278 287 290 299 304 293 277 258 235 287 39 255 253 259 295 293 291 319 335 326 308 294 290 280 255 248 248 246 243 239 245 241 248 230 237 214 237 236 230 163 156 142 150 156 167 170 174 197 199 212 222 235 204
286 339 328 316 289 268 252 245 289 310 298 284 142 255 254 301 299 337 327 315 314 312 306 297 298 277 254 256 246 238 226 231 233 229 241 217 214 222 215 206 146 162 146 155 153 131 115 184 239 275 269 252 197 152
294 301 269 261 268 272 283 284 281 272 85 73 10 309 312 297 309 280 298 309 313 308 307 314 313 310 313 275 259 272 276 275 349 12 10 334 67 149 121 119 123 128 132 143 143 154 164 195 210 209 208 177 157 167
249 243 287 287 287 295 298 283 201 125 97 69 3 332 307 295 296 305 314 327 324 330 326 316 309 311 323 34 25 4 319 352 350 327 307 314 16 105 107 111 123 125 144 150 170 204 203 201 192 189 168 145 139 170
251 269 261 272 259 262 290 232 149 112 87 48 12 357 356 328 331 314 307 323 324 312 306 294 309 47 41 18 6 1 2 5 345 335 305 271 148 111 124 127 128 134 152 187 219 211 165 162 149 136 143 143 150 127